Total_Precipitation_Accumulation
0.40 0.41 0.28 0.25 0.20 0.39 0.56 0.55 0.46 0.46 0.42 0.38 0.30 0.25 0.25 0.22 0.18 0.18 0.20 0.22 0.21 0.19 0.20 0.22 0.21 0.22 0.23 0.19 0.18 0.19 0.16 0.14 0.12 0.10 0.13 0.17 0.13 0.06 0.04 0.07 0.11 0.13 0.11
0.59 0.55 0.49 0.47 0.38 0.49 0.66 0.75 0.67 0.72 0.56 0.53 0.36 0.28 0.26 0.24 0.25 0.25 0.20 0.21 0.21 0.18 0.15 0.21 0.25 0.23 0.22 0.20 0.19 0.16 0.14 0.11 0.11 0.10 0.10 0.12 0.12 0.09 0.07 0.07 0.11 0.14 0.14
0.99 1.09 0.99 0.72 0.59 0.70 0.78 0.72 0.69 0.90 0.70 0.62 0.50 0.51 0.46 0.37 0.33 0.31 0.27 0.23 0.17 0.19 0.17 0.18 0.23 0.23 0.23 0.24 0.27 0.25 0.20 0.12 0.08 0.07 0.07 0.09 0.09 0.08 0.08 0.07 0.09 0.15 0.16
1.00 1.10 0.86 0.57 0.61 0.83 0.92 0.83 0.80 0.96 0.87 0.74 0.63 0.60 0.52 0.40 0.30 0.26 0.21 0.16 0.11 0.06 0.07 0.12 0.20 0.24 0.29 0.31 0.34 0.38 0.33 0.17 0.07 0.04 0.03 0.06 0.07 0.05 0.04 0.05 0.08 0.14 0.13
0.51 0.62 0.44 0.36 0.50 0.64 0.58 0.48 0.60 0.78 0.76 0.74 0.70 0.47 0.35 0.26 0.18 0.15 0.11 0.07 0.07 0.06 0.03 0.06 0.16 0.25 0.29 0.35 0.37 0.37 0.37 0.29 0.16 0.10 0.06 0.06 0.07 0.04 0.02 0.04 0.10 0.13 0.12
0.20 0.26 0.25 0.20 0.28 0.28 0.21 0.31 0.46 0.56 0.45 0.48 0.50 0.30 0.22 0.18 0.16 0.14 0.10 0.06 0.05 0.04 0.02 0.03 0.10 0.18 0.24 0.30 0.32 0.27 0.25 0.26 0.21 0.19 0.12 0.10 0.12 0.07 0.02 0.04 0.11 0.09 0.09
0.08 0.10 0.10 0.10 0.14 0.11 0.06 0.16 0.28 0.25 0.15 0.31 0.35 0.19 0.11 0.08 0.09 0.09 0.08 0.04 0.03 0.03 0.02 0.04 0.07 0.12 0.16 0.18 0.23 0.25 0.22 0.20 0.19 0.18 0.15 0.14 0.14 0.10 0.04 0.04 0.05 0.04 0.07
0.02 0.02 0.03 0.04 0.04 0.05 0.03 0.06 0.17 0.21 0.17 0.25 0.28 0.21 0.09 0.05 0.04 0.02 0.03 0.03 0.01 0.01 0.01 0.04 0.10 0.14 0.17 0.19 0.24 0.23 0.26 0.22 0.22 0.23 0.24 0.21 0.17 0.11 0.08 0.07 0.07 0.04 0.05
0.00 0.00 0.00 0.01 0.01 0.02 0.02 0.04 0.10 0.14 0.15 0.14 0.19 0.23 0.10 0.03 0.03 0.03 0.03 0.03 0.03 0.02 0.04 0.09 0.15 0.23 0.30 0.31 0.27 0.22 0.17 0.18 0.24 0.30 0.31 0.22 0.11 0.06 0.09 0.14 0.15 0.09 0.05
0.00 0.00 0.00 0.00 0.01 0.01 0.03 0.03 0.05 0.09 0.12 0.09 0.08 0.10 0.12 0.12 0.09 0.04 0.03 0.02 0.03 0.03 0.06 0.10 0.19 0.29 0.32 0.35 0.30 0.25 0.19 0.18 0.21 0.26 0.27 0.24 0.16 0.11 0.16 0.27 0.33 0.27 0.15
0.00 0.00 0.00 0.00 0.01 0.02 0.04 0.06 0.07 0.09 0.11 0.11 0.12 0.13 0.16 0.20 0.17 0.12 0.05 0.03 0.07 0.07 0.09 0.13 0.23 0.30 0.31 0.39 0.49 0.43 0.35 0.28 0.22 0.18 0.19 0.22 0.26 0.30 0.33 0.41 0.52 0.55 0.46
0.00 0.00 0.00 0.01 0.01 0.02 0.03 0.05 0.06 0.08 0.12 0.15 0.18 0.18 0.19 0.18 0.16 0.18 0.13 0.10 0.12 0.13 0.23 0.31 0.36 0.40 0.39 0.50 0.55 0.48 0.35 0.23 0.16 0.12 0.12 0.14 0.16 0.18 0.22 0.30 0.45 0.64 0.75
0.00 0.01 0.01 0.01 0.01 0.01 0.03 0.04 0.05 0.06 0.09 0.13 0.15 0.16 0.19 0.22 0.26 0.29 0.29 0.25 0.26 0.28 0.36 0.43 0.49 0.50 0.44 0.47 0.46 0.41 0.28 0.14 0.07 0.04 0.03 0.04 0.08 0.17 0.26 0.31 0.37 0.47 0.58
0.01 0.01 0.01 0.00 0.00 0.01 0.03 0.06 0.07 0.09 0.10 0.11 0.10 0.16 0.19 0.22 0.34 0.37 0.39 0.45 0.39 0.39 0.47 0.52 0.55 0.58 0.60 0.52 0.43 0.32 0.19 0.10 0.04 0.02 0.02 0.02 0.02 0.05 0.11 0.22 0.36 0.49 0.60
0.03 0.02 0.01 0.01 0.00 0.01 0.02 0.04 0.05 0.08 0.10 0.10 0.14 0.20 0.24 0.28 0.37 0.39 0.43 0.49 0.49 0.45 0.53 0.57 0.44 0.40 0.42 0.35 0.27 0.19 0.10 0.05 0.03 0.01 0.01 0.01 0.01 0.01 0.02 0.03 0.06 0.10 0.17
0.09 0.07 0.05 0.03 0.02 0.02 0.02 0.03 0.04 0.07 0.10 0.14 0.20 0.26 0.29 0.33 0.38 0.37 0.44 0.49 0.49 0.51 0.56 0.52 0.36 0.31 0.30 0.19 0.12 0.08 0.04 0.02 0.02 0.01 0.01 0.01 0.01 0.01 0.01 0.02 0.01 0.02 0.03
0.10 0.09 0.09 0.08 0.06 0.05 0.05 0.07 0.11 0.13 0.18 0.21 0.24 0.30 0.35 0.39 0.41 0.39 0.46 0.48 0.44 0.50 0.47 0.36 0.31 0.28 0.23 0.15 0.08 0.06 0.04 0.02 0.02 0.02 0.02 0.02 0.02 0.01 0.01 0.01 0.01 0.01 0.01
0.11 0.11 0.11 0.11 0.09 0.06 0.06 0.10 0.17 0.16 0.17 0.20 0.31 0.42 0.46 0.49 0.44 0.40 0.45 0.43 0.41 0.50 0.48 0.31 0.26 0.22 0.19 0.13 0.09 0.07 0.04 0.02 0.01 0.02 0.01 0.02 0.01 0.01 0.00 0.00 0.00 0.00 0.00
0.10 0.10 0.11 0.10 0.10 0.08 0.07 0.10 0.17 0.17 0.20 0.30 0.42 0.44 0.42 0.47 0.43 0.39 0.40 0.37 0.38 0.49 0.45 0.31 0.24 0.21 0.18 0.12 0.10 0.07 0.05 0.03 0.01 0.01 0.01 0.01 0.02 0.02 0.01 0.00 0.00 0.00 0.00
0.07 0.09 0.11 0.11 0.11 0.09 0.08 0.12 0.16 0.20 0.28 0.41 0.41 0.29 0.29 0.37 0.37 0.33 0.30 0.27 0.28 0.32 0.30 0.26 0.23 0.22 0.17 0.13 0.12 0.09 0.06 0.03 0.01 0.01 0.00 0.00 0.00 0.00 0.00 0.00 0.00 0.00 0.00
0.05 0.08 0.10 0.10 0.10 0.09 0.08 0.13 0.19 0.14 0.15 0.20 0.19 0.14 0.14 0.21 0.29 0.28 0.23 0.22 0.22 0.22 0.22 0.21 0.19 0.20 0.20 0.18 0.13 0.10 0.07 0.03 0.01 0.01 0.01 0.01 0.01 0.01 0.00 0.00 0.00 0.00 0.00
0.05 0.09 0.12 0.12 0.11 0.10 0.10 0.10 0.10 0.10 0.09 0.07 0.07 0.07 0.05 0.04 0.09 0.16 0.20 0.21 0.22 0.21 0.20 0.21 0.22 0.20 0.19 0.20 0.15 0.09 0.05 0.03 0.02 0.02 0.03 0.04 0.03 0.01 0.00 0.00 0.00 0.00 0.00
0.05 0.09 0.12 0.14 0.14 0.15 0.12 0.08 0.06 0.05 0.04 0.03 0.03 0.03 0.03 0.02 0.02 0.04 0.07 0.10 0.12 0.14 0.14 0.17 0.21 0.20 0.18 0.16 0.12 0.08 0.07 0.06 0.03 0.02 0.03 0.03 0.02 0.01 0.00 0.00 0.00 0.00 0.00
0.07 0.10 0.14 0.16 0.18 0.19 0.15 0.11 0.08 0.05 0.03 0.03 0.02 0.02 0.02 0.01 0.01 0.01 0.01 0.02 0.04 0.05 0.06 0.09 0.11 0.12 0.11 0.10 0.07 0.06 0.05 0.04 0.02 0.01 0.01 0.02 0.01 0.02 0.02 0.01 0.00 0.00 0.00
0.12 0.12 0.14 0.17 0.19 0.21 0.19 0.14 0.11 0.07 0.05 0.04 0.02 0.01 0.02 0.02 0.00 0.01 0.01 0.01 0.01 0.02 0.02 0.03 0.03 0.03 0.02 0.02 0.02 0.02 0.01 0.01 0.00 0.00 0.00 0.01 0.02 0.03 0.05 0.03 0.00 0.00 0.00
0.17 0.16 0.15 0.17 0.21 0.25 0.24 0.18 0.13 0.09 0.08 0.06 0.04 0.01 0.01 0.00 0.00 0.00 0.01 0.02 0.01 0.00 0.00 0.00 0.00 0.00 0.00 0.00 0.00 0.00 0.00 0.00 0.00 0.00 0.00 0.01 0.01 0.02 0.04 0.02 0.01 0.00 0.00